Погода в Бакаево

Россия / Оренбургская область     54°07′28″N   52°24′14″E
темп.,
°C
ветер,
м/с
пор.,
м/с
влажн.,
%
обл.,
%
осадки,
мм/ч
давл.,
гПа
погр.,
м
16 мая, вс
вс1623:00+20ю34515 0.0 102040
02:00+18ююв33533 0.0 102019
05:00+17ююв22535 0.0 102111
08:00+20ююв26530 0.0 1021160
11:00+26ю47390 0.0 1021511
14:00+29ююз67295 0.0 10202569
17:00+30ююз57275 0.0 10193483
20:00+26ююв334417 0.0 101827
17 мая, пн
пн1723:00+21ююз4125099 0.1 1019270
02:00+19ююз005224 0.0 101911
05:00+18ююв335410 0.0 102030
08:00+20ююв255452 0.0 1020152
11:00+25ююз454296 0.0 1020530
14:00+29юз333369 0.0 10201223
17:00+29юз332899 0.0 10193081
20:00+26юз22415 0.0 101811
18 мая, вт
вт1823:00+20сз225119 0.0 101911
02:00+21вюв114539 0.0 101911
05:00+18ююв115338 0.0 101911
08:00+21всв1151100 0.0 101966
11:00+27ююв1136100 0.0 1019489
14:00+29з212594 0.0 10182772
17:00+30з112433 0.0 10183221
20:00+27зсз223719 0.0 101712
19 мая, ср
ср1923:00+19св6127285 1.1 1019299
02:00+18всв5117451 0.3 1018221
05:00+16всв4117568 0.3 1019228
08:00+18в5106813 0.0 1019323
11:00+22в6850100 0.0 1019762
14:00+25вюв6639100 0.0 10181467
17:00+26юв67375 0.0 10181990
20:00+23вюв511530 0.0 1018312
20 мая, чт
чт2023:00+19юв615520 0.0 1019434
02:00+17юв615580 0.0 1019447
05:00+15юв716570 0.0 1020468
08:00+16юв715610 0.0 1020550
11:00+21ююв811491 0.0 1019912
14:00+23ююв8114642 0.0 10191791
17:00+17в0080100 0.8 102035
20:00+19ююв4117051 0.5 1019504